Raton, NM

12:03 PM MDT on June 22, 2017 (GMT -0600)
Raton Municipal-Crews

Weather History for KRTN - September, 2013

Change the Weather History Date:

Monday, September 9, 2013

  Actual Average (KTAD) Record (KTAD)
Temperature  
Mean Temperature 70 °F -  
Max Temperature 84 °F 82 °F 93 °F (1979)
Min Temperature 55 °F 52 °F 35 °F (2001)
Cooling Degree Days 4    
Growing Degree Days 20 (Base 50)    
Moisture  
Dew Point 45 °F    
Average Humidity 46    
Maximum Humidity 72    
Minimum Humidity 24    
Precipitation  
Precipitation 0.00 in - - ()
Sea Level Pressure  
Sea Level Pressure 29.82 in    
Wind  
Wind Speed 8 mph (SSW)    
Max Wind Speed 21 mph    
Max Gust Speed 33 mph    
Visibility 10 miles    
Events      
Averages and records for this station are not official NWS values.
T = Trace of Precipitation, MM = Missing Value Source: NWS Daily Summary

Daily Weather History Graph

Daily Weather History Graph

Search for Another Location

Airport or City:

Trip Planner

Search our weather history database for the weather conditions in past years. The results will help you decide how hot, cold, wet, or windy it might be!

Date:

Astronomy

Sep. 09, 2013 Rise Set
Actual Time 6:35 AM MDT 7:14 PM MDT
Civil Twilight 6:09 AM MDT 7:40 PM MDT
Nautical Twilight 5:38 AM MDT 8:10 PM MDT
Astronomical Twilight 5:07 AM MDT 8:42 PM MDT
Moon 10:51 AM MDT (9/9) 9:40 PM MDT (9/9)
Length of Visible Light 13h 30m
Length of Day
12h 38m
Waxing Crescent, 19% of the Moon is Illuminated
Sep 9
Waxing Crescent
Sep 12
First Quarter
Sep 19
Full
Sep 26
Last Quarter
Oct 4
New

Hourly Weather History & Observations

Time (MDT) Temp. Dew Point Humidity Pressure Visibility Wind Dir Wind Speed Gust Speed Precip Events Conditions
12:53 AM 61.0 °F 45.0 °F 56% 29.85 in 10.0 mi SSW 4.6 mph - N/A   Clear
1:53 AM 61.0 °F 46.0 °F 58% 29.85 in 10.0 mi West 3.5 mph - N/A   Clear
2:53 AM 60.1 °F 46.0 °F 60% 29.83 in 10.0 mi SW 4.6 mph - N/A   Clear
3:53 AM 57.9 °F 46.9 °F 67% 29.83 in 10.0 mi West 3.5 mph - N/A   Clear
4:53 AM 57.9 °F 46.9 °F 67% 29.83 in 10.0 mi West 4.6 mph - N/A   Clear
5:53 AM 55.0 °F 46.0 °F 72% 29.85 in 10.0 mi Calm Calm - N/A   Clear
6:53 AM 55.9 °F 46.9 °F 72% 29.87 in 10.0 mi NNW 3.5 mph - N/A   Clear
7:53 AM 63.0 °F 48.9 °F 60% 29.87 in 10.0 mi Calm Calm - N/A   Clear
8:53 AM 66.0 °F 48.9 °F 54% 29.86 in 10.0 mi South 5.8 mph - N/A   Clear
9:53 AM 70.0 °F 48.0 °F 46% 29.87 in 10.0 mi South 6.9 mph - N/A   Clear
10:53 AM 75.9 °F 48.0 °F 37% 29.84 in 10.0 mi SSE 11.5 mph 16.1 mph N/A   Clear
11:53 AM 79.0 °F 48.0 °F 34% 29.83 in 10.0 mi SSW 13.8 mph 24.2 mph N/A   Clear
12:53 PM 82.9 °F 45.0 °F 26% 29.80 in 10.0 mi South 16.1 mph 27.6 mph N/A   Clear
1:53 PM 82.9 °F 45.0 °F 26% 29.77 in 10.0 mi South 20.7 mph 33.4 mph N/A   Clear
2:53 PM 84.0 °F 43.0 °F 24% 29.75 in 10.0 mi South 18.4 mph 29.9 mph N/A   Clear
3:53 PM 82.0 °F 43.0 °F 25% 29.75 in 10.0 mi South 19.6 mph - N/A   Mostly Cloudy
4:53 PM 81.0 °F 42.1 °F 25% 29.75 in 10.0 mi SSE 20.7 mph 31.1 mph N/A   Mostly Cloudy
5:53 PM 79.0 °F 41.0 °F 26% 29.77 in 10.0 mi South 19.6 mph - N/A   Clear
6:53 PM 75.9 °F 39.9 °F 27% 29.79 in 10.0 mi South 18.4 mph 25.3 mph N/A   Clear
7:53 PM 71.1 °F 43.0 °F 36% 29.81 in 10.0 mi South 9.2 mph - N/A   Clear
8:53 PM 64.9 °F 43.0 °F 45% 29.85 in 10.0 mi WSW 4.6 mph - N/A   Clear
9:53 PM 64.0 °F 43.0 °F 46% 29.86 in 10.0 mi WSW 5.8 mph - N/A   Clear
10:53 PM 61.0 °F 43.0 °F 52% 29.86 in 10.0 mi WSW 6.9 mph - N/A   Clear
11:53 PM 60.1 °F 44.1 °F 55% 29.86 in 10.0 mi West 6.9 mph - N/A   Clear